This demonstration page uses our WeatherBlox Daily Observations layout. Learn more.

41.55636, -103.73856

Hourly Observations for May 10, 2019

Temp ( °F °C ) Dew Point ( °F °C ) Humidity (%) Winds ( mph kmh ) Pressure ( in mb ) Visibility ( mi km ) Precip ( " mm )
12:53 am 00:53 Mostly Cloudy 38 3.3 36 2.2 93 93 Calm 30.18 1022 10 16.09344 0 0
1:53 am 01:53 Mostly Cloudy 36 2.2 33 0.6 89 89 E 6 9 30.18 1022 10 16.09344 0 0
2:53 am 02:53 Clear 33 0.6 31 -0.6 92 92 SE 5 7 30.15 1021 10 16.09344 0 0
3:53 am 03:53 Clear 32 0 31 -0.6 96 96 E 6 9 30.15 1021 10 16.09344 0 0
4:53 am 04:53 Cloudy 32 0 30 -1.1 92 92 ESE 8 13 30.15 1021 10 16.09344 0 0
5:53 am 05:53 Mostly Cloudy 32 0 30 -1.1 92 92 ESE 6 9 30.15 1021 10 16.09344 0 0
6:53 am 06:53 Mostly Cloudy 35 1.7 33 0.6 93 93 E 7 11 30.15 1021 10 16.09344 0 0
7:53 am 07:53 Cloudy 38 3.3 35 1.7 89 89 ESE 8 13 30.12 1020 10 16.09344 0 0
8:53 am 08:53 Cloudy 41 5 36 2.2 82 82 ESE 7 11 30.12 1020 10 16.09344 0 0
9:53 am 09:53 Mostly Sunny 46 7.8 38 3.3 73 73 ESE 8 13 30.09 1019 10 16.09344 0 0
10:53 am 10:53 Cloudy 50 10 37 2.8 61 61 SE 13 20 30.06 1018 10 16.09344 0 0
11:53 am 11:53 Cloudy 50 10 35 1.7 57 57 SE 12 19 30.06 1018 10 16.09344 0 0
12:53 pm 12:53 Cloudy 53 11.7 35 1.7 51 51 SSE 13 20 30.03 1017 10 16.09344 0 0
1:53 pm 13:53 Cloudy 54 12.2 36 2.2 51 51 ESE 10 17 30 1016 10 16.09344 0 0
2:53 pm 14:53 Sunny 57 13.9 36 2.2 45 45 VRB 3 6 29.97 1015 10 16.09344 0 0
3:53 pm 15:53 Partly Cloudy 59 15 36 2.2 42 42 SSW 8 13 29.94 1014 10 16.09344 0 0
4:53 pm 16:53 Sunny 59 15 35 1.7 41 41 SE 5 7 29.91 1013 10 16.09344 0 0
5:53 pm 17:53 Mostly Sunny 58 14.4 38 3.3 48 48 SSE 13 20 29.91 1013 10 16.09344 0 0
6:53 pm 18:53 Sunny 55 12.8 39 3.9 55 55 SE 12 19 29.91 1013 10 16.09344 0 0
7:53 pm 19:53 Sunny 50 10 40 4.4 68 68 E 10 17 29.94 1014 10 16.09344 0 0
8:53 pm 20:53 Clear 47 8.3 39 3.9 74 74 E 12 19 29.94 1014 10 16.09344 0 0
9:53 pm 21:53 Clear 44 6.7 38 3.3 79 79 SE 9 15 29.91 1013 10 16.09344 0 0
10:53 pm 22:53 Clear 40 4.4 37 2.8 89 89 ESE 8 13 29.91 1013 10 16.09344 0 0
11:53 pm 23:53 Clear 41 5 37 2.8 86 86 SE 5 7 29.91 1013 10 16.09344 0 0

Powered by AerisWeather